Location: Eindhoven
(51.4416°N, 5.4697°E)
Time: 16:42:27
(UTC+01:00)

deb Explorer IX - Pass Details

Date: 25 November 2019
Orbit: 546 x 1105 km, 38.8° (Epoch: 09 December)

Event Time Altitude Azimuth Distance (km) Brightness Sun altitude
Rises 00:58:28 0° 242° (WSW) 3,863 - -58.5°
Reaches altitude 10° 01:01:44 10° 231° (SW) 2,855 - -58.4°
Maximum altitude 01:07:18 26° 177° (S) 1,808 - -58.1°
Drops below altitude 10° 01:12:22 10° 123° (ESE) 2,576 - -57.8°
Sets 01:15:10 0° 111° (ESE) 3,419 - -57.7°
